Weather in Serniki

Ukraine / Rovno District     51°49′17″N   26°14′09″E
temp.,
°C
wind,
m/s
gust,
m/s
humid.,
%
clouds,
%
prec.,
mm/h
press.,
hPa
HPBL,
m
7 may, fri
fri700:00+6sw31185100 0.2 1011286
03:00+5ssw399367 0.3 1010223
06:00+5s2794100 0.0 1009164
09:00+9ssw61078100 0.1 1009846
12:00+8s41191100 1.8 10071230
15:00+10s4985100 2.0 1006818
18:00+12wsw4778100 0.4 1005878
21:00+8w23949 0.8 100646
8 may, sat
sat800:00+6nw4992100 0.0 1007376
03:00+4wnw3895100 0.0 1009292
06:00+4w2695100 0.1 1010281
09:00+3wnw51097100 0.8 1012617
12:00+3wnw51197100 2.1 1015563
15:00+8nw797196 2.4 10161496
18:00+8nw585718 0.1 10181469
21:00+4w22825 0.1 101934
9 may, sun
sun900:00+2w35905 0.0 102195
03:00+1w35940 0.0 102295
06:00+1w279652 0.0 1024143
09:00+7w34695 0.0 1025496
12:00+12wnw34455 0.0 10251547
15:00+14w243663 0.0 10242024
18:00+15sw233715 0.0 10241987
21:00+9sse36677 0.0 102599
10 may, mon
mon1000:00+7sse39705 0.0 1026157
03:00+6sse311715 0.0 1026211
06:00+5sse39785 0.0 1026154
09:00+12sse58555 0.0 1027410
12:00+17sse68425 0.0 10261221
15:00+19sse68395 0.0 10251480
18:00+18sse58476 0.0 10241250
21:00+12se3116820 0.0 1025256
11 may, tue
tue1100:00+10se413755 0.0 1025330
03:00+9se5147622 0.0 1025370
06:00+8se414805 0.0 1025365
09:00+13se611590 0.0 1025577
12:00+18se68410 0.0 10241155
15:00+20se68340 0.0 10231417
18:00+19se58420 0.0 10221237
21:00+13se311620 0.0 1021256